THOR ABLESTAR DEB, 469

Orbit data source: Space-Track

THOR ABLESTAR DEB, 469 is space debris in LEO originally from a launch on Thu, 29 Jun 1961 UTC launched from the Air Force Eastern Test Range (AFETR). Debris objects in space refer to the collection of defunct objects orbiting the Earth. Examples of debris include non-operational satellites, rocket bodies, and fragments generated from explosions, collisions, or faulty payload assembly.

Loading next visibility...
Identifier
469, 1961-015FF
Orbit
LEO
Country
Flag of USUS
Related business
Manufacturer
Unknown
Mission
Spacecraft
Bus & Motor
Unknown
Mass
Unknown
Launch date (UTC)
1961-06-29 (64 years ago)
Launch vehicle
Unknown
Launch site
Air Force Eastern Test Range (AFETR)
Object type
Payload
Rocket body
Debris
Shape & HBR
Unknown shape, 0.1 m
Radar Cross Section
Small (<0.1 m²)

Expand to show TLE details & history
Last TLE update: 12 hours ago

TLE from 12 hours ago
0 THOR ABLESTAR DEB
1 00469U 61015FF  25308.95463969  .00000826  00000-0  31647-3 0  9991
2 00469  66.8344  23.6353 0057242 355.9955   4.0681 14.34560947320844
Epoch: 2025-11-04T22:54Z
TLE epoch observation values (Epoch: 2025-11-04T22:54:40.869Z)
Latitude
0.00007°
Longitude
-4.4692°
Altitude
737.793 km
Speed
7.508 km/s
True Right ascension
01h 34m 32s
True Declination
0° 00' 00"
Sunlit
Object was in full shadow at epoch
Visualization orbit readout
Latitude
Unknown
Longitude
Unknown
Altitude
Unknown
Speed
Unknown
Apparent Right ascension
Unknown
Apparent Declination
Unknown
Sunlit
N/A
Visualization observer readout
Local Sidereal Time
06:30:26
Azimuth
Unknown
Elevation
Unknown
Doppler factor
Unknown
Orbital elements
Apogee altitude
815.827 km
Perigee altitude
733.936 km
Semi-major axis
7,153.019 km
Eccentricity
0.00572
Inclination
66.8344°
RAAN
23.6353°
Arg. of periapsis
355.9955°
True anomaly
4.11497°
Mean anomaly
4.0681°
Eccentric anomaly
4.0915°
Mean motion
3.58764 °/min
Orbital period
100.34 mins
BSTAR
0.00031647

Documentation

Showing up to 5 results
|